Wind_Speed
27 30 31 33 35 35 29 26 26 27 30 31 32 30 27 27 27 27 27 26 25 22 21 19 18 15 13 16 17 20 21 19 23 33 37 46 26 19 30 62 63 61 57
26 29 30 31 34 35 30 26 25 25 28 30 31 29 28 27 28 28 30 29 27 23 21 19 19 17 14 16 20 17 24 21 24 36 30 21 31 24 43 61 62 59 57
25 27 28 30 33 34 31 27 25 25 26 28 30 30 29 28 28 29 31 31 30 27 23 20 19 18 16 16 22 20 26 22 29 32 46 22 18 27 41 70 67 63 58
23 25 27 29 32 34 32 28 25 25 26 27 29 31 30 29 30 30 31 32 31 29 26 23 21 22 19 16 20 18 23 23 24 32 36 16 12 43 40 42 65 58 60
21 24 25 28 30 33 33 30 27 25 25 26 27 29 31 30 33 32 32 32 32 29 28 25 25 25 22 17 17 21 17 27 22 23 22 14 9 12 36 44 36 45 68
20 23 24 26 28 31 33 31 28 26 24 25 26 27 29 32 34 33 31 31 31 30 29 28 25 24 24 19 17 20 20 21 27 22 20 17 15 20 26 39 42 40 57
18 21 23 24 26 29 32 32 30 28 26 24 24 26 28 30 33 33 32 30 31 31 30 29 26 25 25 23 20 16 19 19 24 25 22 18 21 22 23 25 26 34 45
17 20 21 23 23 26 29 32 32 30 27 25 24 24 26 28 30 31 31 29 29 30 31 31 30 28 26 24 23 18 15 18 21 25 24 21 20 15 18 18 21 18 35
16 18 21 22 22 23 25 29 32 32 30 28 26 24 24 25 28 27 28 29 30 30 31 31 32 31 30 25 23 20 16 14 20 19 22 24 24 24 24 24 24 23 24
14 17 19 21 21 22 23 26 29 33 33 31 29 27 25 24 25 25 26 27 29 32 33 32 33 33 31 26 22 22 18 18 16 20 20 21 22 18 24 19 18 14 19
14 16 18 20 21 21 22 23 26 29 31 32 31 29 28 26 24 24 24 25 27 29 32 34 35 33 31 30 27 24 24 22 16 13 17 19 20 20 22 22 21 12 20
13 15 17 19 19 20 21 22 23 25 28 31 33 31 29 29 27 26 25 26 26 28 31 33 34 33 32 31 30 29 25 20 18 13 11 13 15 16 19 17 17 22 23
13 14 15 17 18 19 20 21 21 23 25 28 30 31 30 29 28 29 29 28 27 28 30 30 30 29 30 30 30 26 23 21 20 14 13 10 12 14 12 11 14 14 14
12 13 13 15 16 18 19 20 21 22 22 24 26 28 30 29 27 28 29 29 30 30 29 27 26 25 26 27 26 26 25 24 21 19 17 16 13 10 10 10 11 11 13
11 12 12 14 14 16 18 18 19 19 20 21 22 24 25 25 27 29 29 28 29 29 27 25 24 24 23 24 24 26 26 25 25 24 20 17 13 10 7 8 7 10 12
10 11 11 11 13 15 16 17 18 18 19 19 19 20 21 23 25 26 28 29 29 28 24 24 23 23 24 25 24 24 23 22 23 22 20 18 16 13 11 8 4 2 7
9 10 10 11 11 13 14 16 17 17 18 18 18 19 19 20 21 22 23 26 27 27 25 27 27 27 27 25 23 22 22 23 22 20 18 18 18 16 13 11 8 5 2
8 9 10 11 11 11 12 13 15 16 17 17 17 17 17 17 18 19 19 21 21 22 25 26 27 27 27 26 26 25 25 23 21 20 18 17 16 16 14 12 10 9 7
5 8 9 10 10 11 12 12 13 14 15 15 16 16 16 16 16 17 17 17 16 18 19 21 23 25 24 25 25 25 24 24 23 22 21 20 19 18 17 15 13 12 11
5 7 8 9 10 10 11 11 12 12 13 13 14 15 15 15 15 15 15 15 16 16 16 17 18 20 21 21 22 23 24 24 23 23 22 21 21 20 19 18 16 15 14
5 6 7 9 9 10 11 11 11 11 11 12 12 12 13 14 14 14 15 15 15 15 15 16 16 16 17 18 18 18 18 19 21 22 23 23 22 20 21 21 20 19 19
4 5 6 8 9 10 10 10 11 11 12 12 12 12 12 12 13 13 13 13 14 14 14 14 14 14 14 15 15 16 16 16 16 16 17 18 19 20 20 20 20 20 20
4 5 6 7 9 9 10 11 11 12 11 12 12 12 12 12 12 12 13 13 13 13 13 13 13 13 13 12 13 13 14 14 14 15 16 16 16 16 17 17 18 19 19
5 6 6 7 8 9 10 11 12 12 12 12 12 13 13 13 13 12 12 12 12 12 12 12 12 12 11 11 11 11 11 11 12 12 13 13 14 14 15 16 17 18 20
6 7 7 8 8 9 10 10 11 12 13 13 13 13 14 14 14 13 13 12 12 12 12 12 12 12 12 12 11 11 11 11 11 11 11 12 13 14 15 16 18 19 21
8 9 9 9 10 10 10 11 11 11 12 13 14 14 14 14 15 15 15 15 14 14 13 13 14 14 14 14 13 13 13 13 13 13 13 13 13 14 16 17 19 20 22
Wind_Direction
355 360 5 6 7 10 13 16 17 15 16 15 17 19 23 29 31 30 31 30 30 27 28 38 50 60 93 104 99 137 153 162 176 191 199 206 207 187 180 187 184 186 188
358 4 6 8 10 11 15 17 20 19 18 20 20 21 26 29 32 32 34 32 35 37 35 38 48 55 75 113 106 123 156 164 175 187 177 201 197 173 174 185 184 190 190
2 7 8 10 13 12 17 20 21 22 21 22 24 25 30 32 34 33 36 33 35 41 42 44 50 58 69 114 113 112 135 156 176 166 177 195 155 183 167 181 186 191 192
5 10 9 12 15 15 17 22 23 25 23 23 25 28 31 33 35 34 36 35 35 40 45 50 55 61 62 97 124 130 128 151 164 179 168 175 163 170 185 177 185 190 193
9 13 12 15 16 17 19 23 25 26 26 27 25 29 31 34 38 34 34 35 36 41 47 51 55 57 61 78 120 127 124 143 164 168 173 174 166 185 185 197 191 180 194
12 15 17 18 17 20 23 25 26 28 29 29 28 28 32 35 38 35 34 35 37 42 49 53 57 60 64 74 104 128 133 138 159 164 189 191 174 165 181 200 203 179 196
14 18 21 21 19 22 26 28 30 31 32 32 31 30 33 36 38 37 36 37 39 42 47 57 62 63 64 65 82 114 141 144 149 155 170 178 176 183 167 171 194 208 201
16 21 22 24 23 24 27 29 33 34 34 36 35 33 34 37 39 37 39 39 45 47 48 53 61 67 67 64 63 84 130 145 144 159 168 170 170 178 190 208 194 191 210
19 21 24 27 26 27 28 30 32 36 37 38 39 38 38 39 42 40 40 42 49 52 55 56 56 61 65 63 64 73 95 132 145 152 161 175 174 173 171 171 172 196 191
22 23 25 28 29 30 32 32 32 32 36 40 41 41 42 41 42 45 45 43 49 53 55 59 61 61 62 66 68 68 79 108 135 161 173 173 175 178 186 180 182 197 212
24 25 26 28 29 31 34 34 34 33 33 36 41 42 43 44 44 45 49 48 50 55 57 57 59 58 60 61 69 72 70 69 89 131 164 183 184 187 191 194 199 205 166
26 26 26 29 30 31 34 36 36 35 34 35 37 41 44 45 45 46 49 51 50 52 54 55 56 56 58 58 56 59 66 67 71 85 122 166 185 189 194 190 201 209 194
26 28 28 28 30 31 34 36 37 37 37 37 37 39 42 44 46 48 49 48 50 50 50 50 52 54 56 60 62 63 66 67 70 76 83 116 162 177 182 189 195 202 205
27 31 27 29 31 33 34 34 37 39 38 38 38 39 40 42 44 48 48 48 49 49 49 48 49 51 54 58 63 65 68 70 71 76 79 82 93 146 167 184 187 202 221
27 27 28 27 31 32 33 35 36 39 41 41 41 42 42 42 44 48 50 49 49 48 45 45 49 53 54 56 57 60 61 64 67 66 71 73 78 83 109 182 206 196 201
26 26 30 26 28 32 32 35 36 38 40 43 45 46 45 44 43 45 46 47 48 48 45 48 49 49 53 54 55 57 59 62 65 66 66 71 72 75 76 83 92 230 226
25 24 22 29 30 27 28 32 33 35 37 39 42 43 44 45 45 43 44 43 42 45 44 48 50 51 52 52 53 54 55 55 55 57 58 58 61 64 65 62 66 75 87
17 19 21 20 22 29 29 28 30 33 34 34 37 40 42 44 45 46 44 46 42 40 40 43 47 51 54 55 55 54 54 56 54 51 50 50 49 52 50 50 53 51 48
16 14 17 16 16 17 20 24 26 27 30 31 32 34 37 39 40 42 44 45 43 44 43 43 43 43 45 49 53 54 54 55 53 51 49 49 47 45 42 39 36 32 28
14 14 14 12 13 12 14 15 21 21 22 28 29 28 29 32 33 35 37 37 37 39 42 44 43 44 44 43 43 44 46 48 51 51 48 47 47 44 44 42 37 31 24
4 6 3 7 8 9 9 8 9 13 12 16 20 24 26 27 26 28 28 27 28 30 32 35 38 39 40 43 45 45 44 40 38 40 41 43 46 45 43 39 35 33 30
347 353 353 357 359 2 4 1 1 4 3 2 7 9 13 18 18 18 20 21 20 20 21 24 26 29 31 33 35 39 43 44 44 41 41 36 34 32 33 32 32 31 29
333 338 344 345 351 354 353 354 357 359 355 354 355 356 356 0 6 9 10 9 10 10 9 10 11 13 15 17 20 22 25 30 31 32 34 35 33 30 27 23 20 18 18
310 320 329 334 339 342 344 348 352 351 348 351 347 346 347 347 348 350 356 357 356 356 357 357 357 356 357 357 358 2 5 8 11 15 20 23 24 23 20 18 14 11 10
292 306 317 321 325 329 332 339 344 343 342 342 343 342 340 339 337 336 337 340 342 342 340 339 339 339 339 338 336 336 338 342 346 351 355 359 1 2 1 1 1 0 360
283 295 302 308 311 317 323 329 332 330 332 335 336 336 334 331 330 329 328 328 327 327 328 327 325 323 322 322 320 319 319 321 324 327 330 333 336 338 340 342 344 345 345
Height
3093 3085 3077 3070 3062 3054 3047 3040 3034 3027 3021 3014 3007 3000 2994 2987 2981 2975 2969 2964 2959 2953 2948 2945 2941 2939 2939 2940 2942 2945 2950 2954 2958 2965 2973 2988 3000 3007 3013 3026 3041 3052 3065
3093 3085 3078 3071 3064 3056 3049 3042 3036 3030 3024 3018 3011 3004 2998 2991 2985 2979 2972 2967 2963 2958 2952 2949 2946 2944 2943 2945 2947 2950 2954 2958 2962 2969 2981 2994 3001 3008 3015 3025 3040 3053 3063
3093 3085 3079 3073 3066 3058 3051 3044 3038 3033 3027 3022 3016 3009 3002 2995 2990 2984 2977 2971 2966 2961 2956 2953 2950 2948 2947 2948 2951 2954 2957 2962 2968 2976 2986 2992 2999 3007 3011 3022 3036 3048 3060
3093 3086 3080 3074 3068 3061 3053 3046 3041 3035 3030 3025 3019 3013 3007 3000 2993 2988 2982 2976 2970 2965 2961 2957 2954 2952 2952 2952 2955 2959 2962 2969 2973 2980 2988 2998 3001 3005 3009 3017 3031 3044 3056
3093 3088 3082 3075 3070 3063 3056 3049 3043 3038 3033 3028 3023 3018 3012 3006 2998 2993 2988 2982 2976 2971 2966 2962 2958 2957 2956 2957 2959 2962 2968 2971 2977 2982 2991 2997 3003 3006 3013 3020 3031 3037 3051
3094 3089 3083 3078 3073 3067 3060 3053 3047 3042 3037 3032 3027 3022 3017 3011 3004 2999 2994 2988 2983 2977 2972 2967 2964 2964 2962 2963 2965 2968 2972 2976 2981 2985 2992 2999 3005 3008 3014 3021 3031 3034 3046
3095 3090 3085 3080 3076 3070 3064 3057 3051 3045 3040 3036 3031 3026 3021 3016 3010 3005 3001 2995 2989 2984 2979 2975 2973 2969 2968 2968 2969 2971 2975 2978 2980 2987 2994 3000 3005 3010 3016 3021 3030 3035 3041
3096 3092 3087 3083 3079 3073 3068 3062 3055 3049 3044 3039 3035 3030 3025 3021 3016 3012 3007 3003 2997 2991 2986 2981 2979 2977 2975 2975 2974 2975 2977 2980 2984 2989 2995 3001 3006 3012 3018 3022 3028 3032 3038
3097 3093 3090 3086 3082 3077 3072 3066 3060 3054 3049 3044 3039 3035 3030 3026 3022 3018 3014 3010 3004 2999 2994 2989 2985 2983 2982 2982 2982 2981 2981 2982 2986 2990 2996 3003 3008 3014 3018 3023 3027 3031 3035
3098 3095 3092 3088 3084 3080 3076 3070 3065 3059 3054 3049 3044 3040 3035 3031 3027 3024 3020 3016 3012 3006 3002 2999 2994 2990 2990 2990 2988 2987 2988 2987 2990 2994 3000 3005 3010 3015 3019 3023 3028 3031 3034
3099 3097 3094 3091 3087 3083 3079 3074 3070 3065 3059 3054 3049 3045 3041 3037 3033 3030 3027 3023 3019 3015 3011 3006 3002 3000 2998 2996 2995 2994 2991 2992 2994 2998 3001 3006 3009 3014 3019 3022 3027 3030 3034
3100 3098 3096 3092 3089 3085 3082 3078 3074 3069 3065 3061 3055 3051 3047 3043 3039 3036 3032 3029 3025 3022 3018 3014 3011 3009 3007 3004 3000 2998 2998 3000 2999 2999 3001 3005 3009 3014 3019 3022 3025 3029 3032
3101 3099 3097 3095 3092 3088 3085 3081 3077 3074 3070 3066 3062 3057 3052 3047 3045 3041 3038 3035 3031 3028 3024 3021 3020 3017 3014 3012 3010 3008 3007 3005 3003 3004 3004 3006 3010 3014 3019 3022 3024 3028 3030
3102 3101 3098 3096 3094 3091 3088 3084 3081 3078 3074 3071 3067 3063 3058 3055 3052 3048 3044 3041 3038 3035 3032 3030 3027 3026 3024 3021 3019 3017 3015 3011 3011 3008 3009 3011 3015 3017 3020 3023 3023 3024 3028
3103 3101 3100 3098 3096 3093 3090 3088 3085 3082 3079 3075 3072 3069 3066 3064 3059 3054 3051 3049 3045 3041 3039 3037 3035 3032 3029 3026 3024 3022 3020 3018 3017 3016 3018 3020 3019 3020 3021 3022 3023 3024 3027
3103 3102 3101 3099 3097 3095 3093 3091 3088 3085 3083 3080 3077 3074 3071 3067 3064 3061 3057 3054 3051 3048 3048 3045 3041 3038 3033 3030 3029 3028 3027 3026 3025 3025 3025 3024 3024 3023 3022 3022 3023 3025 3026
3104 3102 3101 3101 3099 3096 3095 3093 3091 3088 3086 3083 3080 3077 3074 3071 3069 3067 3064 3060 3057 3055 3054 3049 3045 3041 3038 3038 3035 3034 3033 3031 3030 3030 3029 3029 3027 3026 3026 3024 3025 3025 3026
3104 3103 3102 3100 3099 3099 3097 3095 3093 3091 3088 3085 3083 3081 3078 3076 3073 3071 3068 3065 3064 3062 3058 3055 3052 3050 3048 3045 3042 3040 3038 3037 3036 3034 3034 3033 3031 3030 3028 3028 3027 3027 3027
3104 3103 3102 3101 3100 3099 3097 3096 3095 3093 3091 3089 3086 3083 3081 3079 3077 3075 3072 3070 3068 3066 3063 3060 3057 3055 3052 3050 3049 3047 3044 3041 3039 3037 3036 3035 3034 3033 3031 3031 3031 3030 3030
3104 3104 3103 3101 3100 3099 3098 3097 3095 3094 3092 3090 3088 3085 3083 3081 3079 3077 3076 3074 3072 3069 3067 3065 3062 3059 3057 3055 3052 3050 3048 3045 3044 3043 3041 3039 3036 3035 3034 3032 3032 3031 3030
3104 3103 3102 3101 3100 3099 3098 3097 3095 3094 3093 3091 3089 3087 3085 3083 3081 3079 3078 3076 3074 3072 3070 3068 3065 3063 3061 3059 3056 3054 3052 3050 3048 3046 3045 3041 3040 3040 3036 3035 3034 3034 3032
3103 3102 3102 3101 3100 3099 3098 3097 3095 3094 3093 3091 3090 3089 3087 3085 3083 3080 3078 3076 3075 3073 3072 3070 3068 3065 3063 3061 3059 3057 3055 3053 3051 3050 3048 3046 3043 3040 3039 3039 3037 3035 3032
3102 3102 3102 3101 3100 3099 3098 3097 3096 3095 3093 3091 3089 3088 3086 3084 3082 3081 3079 3077 3075 3073 3072 3071 3069 3067 3065 3063 3061 3059 3057 3055 3053 3051 3049 3047 3045 3044 3042 3041 3038 3037 3034
3100 3100 3100 3099 3098 3097 3097 3096 3094 3093 3091 3089 3088 3086 3085 3083 3082 3080 3078 3076 3075 3073 3071 3069 3068 3067 3065 3063 3061 3059 3058 3056 3054 3052 3050 3048 3047 3045 3043 3041 3038 3036 3031
3097 3097 3097 3096 3096 3095 3094 3094 3092 3091 3089 3087 3086 3085 3083 3082 3080 3078 3077 3075 3073 3072 3070 3068 3066 3064 3063 3061 3059 3058 3056 3054 3052 3051 3049 3047 3045 3043 3040 3038 3035 3032 3029
3094 3094 3094 3093 3092 3092 3091 3090 3090 3088 3086 3085 3083 3082 3080 3079 3077 3076 3074 3073 3071 3069 3067 3065 3063 3061 3059 3058 3056 3054 3053 3051 3049 3048 3046 3044 3041 3039 3037 3034 3031 3028 3026